Showing default

KUIPER-00248, 67153

Orbit data source: Space-Track

KUIPER-00248, 67153 is a payload satellite owned by Kuiper Systems (US) in LEO that was launched on Mon, 15 Dec 2025 UTC via an ATLAS V 551 launch vehicle from the Air Force Eastern Test Range (AFETR). Payload-class satellites include a variety of spacecraft equipped with specific instruments for various scientific and technological missions. These include communications satellites like Starlink; space stations such as the ISS; scientific satellites like the Hubble; Earth observation satellites from companies like Planet Labs, Umbra, and HawkEye 360; GPS; miniature CubeSats for education and research; and military/defense satellites.

Loading next visibility...
Identifier
67153, 2025-301W
Orbit
LEO
Country
Flag of USUS
Related business
Manufacturer
Kuiper Systems
Mission
Operational Commercial Communications
Bus & Motor
KUIPER, Unknown motor
Mass
~490 kg wet, ~490 kg dry
Launch date (UTC)
2025-12-15 (6 months ago)
Launch vehicle
ATLAS V 551
Launch site
Air Force Eastern Test Range (AFETR)
Object type
Payload
Rocket body
Debris
Shape & HBR
Box + 2 Pan, 3.4 m
Radar Cross Section
2.326 m², Large (>1 m²)

Expand to show TLE details & history
Last TLE update: 13 hours ago

TLE from 13 hours ago
0 KUIPER-00248
1 67153U 25301W   26171.37690309  .00001778  00000-0  28248-3 0  9997
2 67153  51.8994 306.4082 0001755  71.5018 288.6134 14.76642521 29453
Epoch: 2026-06-20T09:02Z
TLE epoch observation values (Epoch: 2026-06-20T09:02:44.426Z)
Latitude
-0.00001°
Longitude
-97.86932°
Altitude
640.295 km
Speed
7.539 km/s
True Right ascension
20h 25m 37s
True Declination
0° 00' 00"
Sunlit
Object was in full shadow at epoch
Visualization orbit readout
Latitude
Unknown
Longitude
Unknown
Altitude
Unknown
Speed
Unknown
Apparent Right ascension
Unknown
Apparent Declination
Unknown
Sunlit
N/A
Visualization observer readout
Local Sidereal Time
08:32:59
Azimuth
Unknown
Elevation
Unknown
Doppler factor
Unknown
Orbital elements
Apogee altitude
641.624 km
Perigee altitude
639.161 km
Semi-major axis
7,018.53 km
Eccentricity
0.00018
Inclination
51.8994°
RAAN
306.4082°
Arg. of periapsis
71.5018°
True anomaly
288.59434°
Mean anomaly
288.6134°
Eccentric anomaly
288.60387°
Mean motion
3.69125 °/min
Orbital period
97.53 mins
BSTAR
0.00028248
Loading maneuver chart data...
Computing Atmospheric mass density...
Loading historical data...
Loading historical data...
Loading historical data...
Loading historical data...
Loading historical data...
Loading historical data...
Loading historical data...

Documentation

Showing up to 5 results
|